ONEWEB-0064, 45433

Orbit data source: Space-Track

ONEWEB-0064, 45433 is a payload satellite owned by One Web (UK) in LEO that was launched on Sat, 21 Mar 2020 UTC via a SOYUZ-2-1B launch vehicle from the Tyuratam Missile And Space Complex (TTMTR). Payload-class satellites include a variety of spacecraft equipped with specific instruments for various scientific and technological missions. These include communications satellites like Starlink; space stations such as the ISS; scientific satellites like the Hubble; Earth observation satellites from companies like Planet Labs, Umbra, and HawkEye 360; GPS; miniature CubeSats for education and research; and military/defense satellites.

Loading next visibility...
Identifier
45433, 2020-020K
Orbit
LEO
Country
Flag of UKUK
Related business
Manufacturer
One Web
Mission
Operational Commercial Communications
Bus & Motor
ARROW, Unknown motor
Mass
148 kg wet, ~140 kg dry
Launch date (UTC)
2020-03-21 (6 years ago)
Launch vehicle
SOYUZ-2-1B
Launch site
Tyuratam Missile And Space Complex (TTMTR)
Object type
Payload
Rocket body
Debris
Shape & HBR
Trap Box + 2 Pan, 6.7 m
Radar Cross Section
3.464 m², Large (>1 m²)

Expand to show TLE details & history
Last TLE update: 2 days ago

TLE from 2 days ago
0 ONEWEB-0064
1 45433U 20020K   26171.31385628 -.00000246  00000-0 -72895-3 0  9994
2 45433  87.8885  20.4445 0001827  92.0138 268.1199 13.11418520303092
Epoch: 2026-06-20T07:31Z
TLE epoch observation values (Epoch: 2026-06-20T07:31:57.182Z)
Latitude
-0.00005°
Longitude
-1.07402°
Altitude
1,220.612 km
Speed
7.244 km/s
True Right ascension
01h 21m 46s
True Declination
0° 00' 00"
Sunlit
Object was in daylight at epoch
Visualization orbit readout
Latitude
Unknown
Longitude
Unknown
Altitude
Unknown
Speed
Unknown
Apparent Right ascension
Unknown
Apparent Declination
Unknown
Sunlit
N/A
Visualization observer readout
Local Sidereal Time
00:51:31
Azimuth
Unknown
Elevation
Unknown
Doppler factor
Unknown
Orbital elements
Apogee altitude
1,216.182 km
Perigee altitude
1,213.408 km
Semi-major axis
7,592.932 km
Eccentricity
0.00018
Inclination
87.8885°
RAAN
20.4445°
Arg. of periapsis
92.0138°
True anomaly
268.09898°
Mean anomaly
268.1199°
Eccentric anomaly
268.10944°
Mean motion
3.28042 °/min
Orbital period
109.74 mins
BSTAR
-0.00072895
Loading maneuver chart data...
Computing Atmospheric mass density...
Loading historical data...
Loading historical data...
Loading historical data...
Loading historical data...
Loading historical data...
Loading historical data...
Loading historical data...

Documentation

Showing up to 5 results
|